Weather in Nizhniye Buzuli

Russia / Amur Oblast     51°37′31″N   128°11′36″E
temp.,
°C
wind,
m/s
gust,
m/s
humid.,
%
clouds,
%
prec.,
mm/h
press.,
hPa
HPBL,
m
13 april, tue
tue1300:00−6nnw49510 0.0 1015869
03:00−7nnw5105995 0.0 1013607
06:00−8nnw5960100 0.0 1011546
09:00−5nnw6851100 0.0 10101054
12:00−2nnw6834100 0.0 10082200
15:00−1n7933100 0.0 10072504
18:00−2n7935100 0.0 10072071
21:00−4nnw6104872 0.0 10071124
14 april, wed
wed1400:00−5n485780 0.0 10061235
03:00−6nne3676100 0.1 1006665
06:00−7nnw357584 0.0 1006524
09:00−4n6941100 0.0 10071780
12:00−2nnw5733100 0.0 10062256
15:000n5725100 0.0 10062461
18:00+1nnw462799 0.0 10062220
21:00−3nw24404 0.0 100862
15 april, thu
thu1500:00−3wnw23445 0.0 100854
03:00−4w35495 0.0 100995
06:00−4wsw24496 0.0 100982
09:00+1w353497 0.0 1009943
12:00+4w442971 0.0 10092081
15:00+6wnw2225100 0.0 10081982
18:00+5nne2126100 0.0 1009883
21:00+3ne3532100 0.0 1011115
16 april, fri
fri1600:00+1ene4942100 0.0 1011322
03:000ene4948100 0.0 1010280
06:00−1ne51049100 0.1 1009341
09:00+1ne61145100 0.4 1008988
12:00+2ne71152100 0.6 10081126
15:00+1nne71183100 1.4 1009880
18:00+1nne7118699 0.8 1009833
21:00+1nne61275100 0.8 1010612
17 april, sat
sat1700:000nne61183100 0.3 1009469
03:00−1nne5108499 0.4 1009398
06:00−2n5107993 0.0 1010331
09:00+3nne68625 0.0 1010639
12:00+8n56405 0.0 10091208
15:00+10n56200 0.0 10071635
18:00+9n45210 0.0 1008826
21:00+5n22320 0.0 101013